Regional Weather Roundup
Issued by NWS State College, PA

Home | Current Version | Previous Version | Text Only | Print | Product List | Glossary On
Versions: 1 2 3 4 5 6 7 8 9 10 11 12 13 14 15 16 17 18 19 20 21 22 23 24 25 26 27 28 29 30 31 32 33 34 35 36 37 38 39 40 41 42 43 44 45 46 47 48 49 50
000
ASUS41 KCTP 190603
RWRCTP

REGIONAL WEATHER ROUNDUP
NATIONAL WEATHER SERVICE STATE COLLEGE PA
200 AM EDT SAT APR 19 2014

Note: "fair" indicates few or no clouds below 12,000 feet with no
significant weather and/or obstructions to visibility.

* = STATION THAT DOES NOT REPORT PRECIPITATION /E.G. RAIN...SNOW...ETC/
    THUNDER OR FOG.

PAZ002>004-007>009-013>016-020>023-029>032-190700-
WESTERN PENNSYLVANIA

CITY           SKY/WX    TMP DP  RH WIND       PRES   REMARKS
ERIE           FAIR      44  36  73 NE9       30.32R
MEADVILLE      FAIR      41  37  86 NE7       30.28S
FRANKLIN*      FAIR      43  36  75 N8        30.29S
NEW CASTLE     FAIR      46  40  79 CALM      30.28S
BEAVER COUNTY  NOT AVBL
BUTLER*        FAIR      46  37  71 NE7       30.27S
PITTSBURGH INT MOCLDY    51  39  63 N8        30.24S
PITTSBURGH     FAIR      53  38  56 N9        30.23R
INDIANA*       FAIR      46  37  71 CALM      30.25S
LATROBE        CLEAR     46  36  66 CALM      30.24S
WASHINGTON CO* FAIR      43  36  75 CALM      30.25R
$$

PAZ004>006-010>012-017>019-024>028-033>037-041-042-045-046-049>053-190700-
CENTRAL PENNSYLVANIA

CITY           SKY/WX    TMP DP  RH WIND       PRES   REMARKS
BRADFORD       FAIR      38  33  82 CALM      30.26S
DUBOIS         FAIR      47  39  74 N7        30.24F
CLEARFIELD     FAIR      43  34  70 S3        30.24S
JOHNSTOWN      FAIR      48  31  51 CALM      30.22S
ALTOONA        FAIR      44  35  70 CALM      30.24S
STATE COLLEGE  FAIR      46  31  56 CALM      30.23F
WILLIAMSPORT   FAIR      40  33  76 NW3       30.25S
SELINSGROVE    FAIR      38  34  85 CALM      30.26S
FT INDIANTOWN  NOT AVBL
CAPITAL CITY   FAIR      43  35  73 CALM      30.26S
HARRISBURG     CLOUDY    48  34  58 S3        30.26R
YORK           FAIR      39  35  86 CALM      30.25F
$$

PAZ038>040-043-044-047-048-054-055-060>062-067>071-190700-
EASTERN PENNSYLVANIA

CITY           SKY/WX    TMP DP  RH WIND       PRES   REMARKS
SCRANTON       FAIR      43  31  62 SW8       30.23S
MOUNT POCONO   FAIR      40  30  67 W9        30.20F
ALLENTOWN      FAIR      43  33  68 CALM      30.26S
QUAKERTOWN*    FAIR      39  34  81 CALM      30.26S
READING        FAIR      44  34  67 CALM      30.26R
LANCASTER      FAIR      43  32  65 CALM      30.26S
COATESVILLE    FAIR      41  34  75 W3        30.25F
POTTSTOWN      FAIR      41  34  76 CALM      30.27F
BLUE BELL      FAIR      43  37  81 CALM      30.25S
DOYLESTOWN     FAIR      38  36  92 CALM      30.25F
WILLOW GROVE   NOT AVBL
NORTH PHILA    FAIR      42  34  73 CALM      30.27F
PHILADELPHIA   CLOUDY    44  37  76 S8        30.28S
$$



USA.gov is the U.S. government's official web portal to all federal, state and local government web resources and services.